| time (UTC) | temp F | wind direction | speed MPH | gust MPH | rain 1hr in | rain 24hr in | rain mn in | humidity % | barometer mb |
| 20260506211021 | 67 | 45 | 10.0 | 15.0 | 0.00 | 0.00 | 0.00 | 61 | 1015.7 |
| 20260506210809 | 67 | 45 | 7.0 | 12.0 | 0.00 | 0.00 | 0.00 | 63 | 1015.8 |
| 20260506210042 | 67 | 45 | 11.0 | 15.0 | 0.00 | 0.00 | 0.00 | 63 | 1015.9 |
| 20260506205621 | 67 | 338 | 4.0 | 8.0 | 0.00 | 0.00 | 0.00 | 61 | 1015.9 |
| 20260506205306 | 68 | 45 | 8.0 | 12.0 | 0.00 | 0.00 | 0.00 | 62 | 1016.0 |
| 20260506204521 | 68 | 45 | 10.0 | 15.0 | 0.00 | 0.00 | 0.00 | 59 | 1016.0 |
| 20260506204021 | 68 | 45 | 10.0 | 12.0 | 0.00 | 0.00 | 0.00 | 59 | 1016.1 |
| 20260506203555 | 69 | 23 | 4.0 | 5.0 | 0.00 | 0.00 | 0.00 | 59 | 1016.3 |
| 20260506203020 | 69 | 23 | 7.0 | 14.0 | 0.00 | 0.00 | 0.00 | 58 | 1016.3 |
| 20260506202540 | 69 | 45 | 5.0 | 13.0 | 0.00 | 0.00 | 0.00 | 58 | 1016.4 |
| 20260506202023 | 69 | 45 | 9.0 | 12.0 | 0.00 | 0.00 | 0.00 | 56 | 1016.4 |
| 20260506201521 | 69 | 45 | 6.0 | 12.0 | 0.00 | 0.00 | 0.00 | 56 | 1016.2 |
| 20260506201020 | 69 | 45 | 5.0 | 8.0 | 0.00 | 0.00 | 0.00 | 57 | 1016.1 |
| 20260506200521 | 69 | 45 | 6.0 | 11.0 | 0.00 | 0.00 | 0.00 | 58 | 1016.0 |
| 20260506200021 | 68 | 45 | 8.0 | 13.0 | 0.00 | 0.00 | 0.00 | 59 | 1015.9 |
| 20260506195637 | 67 | 45 | 6.0 | 11.0 | 0.00 | 0.00 | 0.00 | 62 | 1015.7 |
| 20260506195021 | 67 | 45 | 11.0 | 17.0 | 0.00 | 0.00 | 0.00 | 62 | 1015.5 |
| 20260506194542 | 67 | 45 | 11.0 | 16.0 | 0.00 | 0.00 | 0.00 | 61 | 1015.5 |
| 20260506194021 | 66 | 45 | 11.0 | 17.0 | 0.00 | 0.00 | 0.00 | 62 | 1015.3 |
| 20260506193508 | 66 | 45 | 9.0 | 15.0 | 0.00 | 0.00 | 0.00 | 61 | 1015.2 |
| 20260506193020 | 66 | 45 | 10.0 | 15.0 | 0.00 | 0.00 | 0.00 | 60 | 1015.4 |
| 20260506192611 | 66 | 45 | 9.0 | 17.0 | 0.00 | 0.00 | 0.00 | 62 | 1015.6 |
| 20260506192021 | 66 | 45 | 9.0 | 16.0 | 0.00 | 0.00 | 0.00 | 61 | 1015.7 |
| 20260506191524 | 65 | 45 | 9.0 | 16.0 | 0.00 | 0.00 | 0.00 | 62 | 1015.5 |
| 20260506191058 | 65 | 45 | 8.0 | 14.0 | 0.00 | 0.00 | 0.00 | 64 | 1015.7 |
| 20260506190520 | 64 | 45 | 8.0 | 16.0 | 0.00 | 0.00 | 0.00 | 63 | 1015.7 |
| 20260506190021 | 64 | 45 | 8.0 | 14.0 | 0.00 | 0.00 | 0.00 | 64 | 1015.7 |
| 20260506185612 | 63 | 45 | 11.0 | 17.0 | 0.00 | 0.00 | 0.00 | 64 | 1015.4 |
| 20260506185020 | 63 | 45 | 12.0 | 18.0 | 0.00 | 0.00 | 0.00 | 65 | 1015.5 |
| 20260506184521 | 63 | 45 | 11.0 | 17.0 | 0.00 | 0.00 | 0.00 | 64 | 1015.4 |
| 20260506184021 | 63 | 45 | 15.0 | 20.0 | 0.00 | 0.00 | 0.00 | 65 | 1015.4 |
| 20260506183520 | 63 | 45 | 11.0 | 22.0 | 0.00 | 0.00 | 0.00 | 64 | 1015.5 |
| 20260506183041 | 62 | 45 | 12.0 | 19.0 | 0.00 | 0.00 | 0.00 | 66 | 1015.6 |
| 20260506182520 | 62 | 45 | 11.0 | 21.0 | 0.00 | 0.00 | 0.00 | 66 | 1015.6 |
| 20260506182022 | 62 | 45 | 13.0 | 19.0 | 0.00 | 0.00 | 0.00 | 65 | 1015.8 |
| 20260506181521 | 62 | 45 | 11.0 | 18.0 | 0.00 | 0.00 | 0.00 | 66 | 1015.9 |
| 20260506181020 | 62 | 45 | 13.0 | 22.0 | 0.00 | 0.00 | 0.00 | 64 | 1015.9 |
| 20260506180650 | 63 | 45 | 13.0 | 20.0 | 0.00 | 0.00 | 0.00 | 63 | 1015.9 |
| 20260506180036 | 62 | 45 | 14.0 | 18.0 | 0.00 | 0.00 | 0.00 | 65 | 1016.0 |
| 20260506175508 | 62 | 45 | 11.0 | 16.0 | 0.00 | 0.00 | 0.00 | 70 | 1016.2 |
| 20260506175042 | 61 | 45 | 13.0 | 21.0 | 0.00 | 0.00 | 0.00 | 68 | 1016.3 |
| 20260506174541 | 61 | 45 | 11.0 | 20.0 | 0.00 | 0.00 | 0.00 | 67 | 1016.3 |
| 20260506174043 | 61 | 68 | 11.0 | 19.0 | 0.00 | 0.00 | 0.00 | 68 | 1016.4 |
| 20260506173543 | 61 | 68 | 9.0 | 14.0 | 0.00 | 0.00 | 0.00 | 69 | 1016.3 |
| 20260506173021 | 61 | 45 | 12.0 | 17.0 | 0.00 | 0.00 | 0.00 | 69 | 1016.3 |
| 20260506172522 | 61 | 45 | 13.0 | 19.0 | 0.00 | 0.00 | 0.00 | 67 | 1016.3 |
| 20260506172042 | 60 | 68 | 11.0 | 21.0 | 0.00 | 0.00 | 0.00 | 68 | 1016.1 |
| 20260506171522 | 60 | 68 | 10.0 | 18.0 | 0.00 | 0.00 | 0.00 | 71 | 1016.1 |
| 20260506171023 | 59 | 45 | 15.0 | 22.0 | 0.00 | 0.00 | 0.00 | 69 | 1016.1 |
| 20260506170523 | 59 | 68 | 10.0 | 16.0 | 0.00 | 0.00 | 0.00 | 70 | 1016.3 |
| 20260506170024 | 59 | 45 | 12.0 | 19.0 | 0.00 | 0.00 | 0.00 | 69 | 1016.3 |
| 20260506165543 | 59 | 45 | 12.0 | 18.0 | 0.00 | 0.00 | 0.00 | 71 | 1016.4 |
| 20260506165021 | 59 | 45 | 14.0 | 20.0 | 0.00 | 0.00 | 0.00 | 71 | 1016.4 |
| 20260506164523 | 59 | 45 | 12.0 | 20.0 | 0.00 | 0.00 | 0.00 | 71 | 1016.2 |
| 20260506164023 | 59 | 45 | 12.0 | 19.0 | 0.00 | 0.00 | 0.00 | 70 | 1016.3 |
| 20260506163523 | 59 | 45 | 12.0 | 16.0 | 0.00 | 0.00 | 0.00 | 72 | 1016.4 |
| 20260506163022 | 58 | 45 | 11.0 | 16.0 | 0.00 | 0.00 | 0.00 | 72 | 1016.7 |
| 20260506162523 | 58 | 45 | 10.0 | 16.0 | 0.00 | 0.00 | 0.00 | 71 | 1016.9 |
| 20260506162022 | 58 | 45 | 10.0 | 15.0 | 0.00 | 0.00 | 0.00 | 71 | 1016.9 |
| 20260506161546 | 57 | 45 | 9.0 | 13.0 | 0.00 | 0.00 | 0.00 | 71 | 1016.9 |
| 20260506161022 | 57 | 45 | 7.0 | 11.0 | 0.00 | 0.00 | 0.00 | 73 | 1017.0 |
| 20260506160522 | 56 | 45 | 5.0 | 9.0 | 0.00 | 0.00 | 0.00 | 74 | 1017.4 |
| 20260506160022 | 56 | 68 | 3.0 | 7.0 | 0.00 | 0.00 | 0.00 | 72 | 1017.4 |
| 20260506155522 | 56 | 45 | 3.0 | 6.0 | 0.00 | 0.00 | 0.00 | 73 | 1017.6 |
| 20260506155022 | 56 | 68 | 7.0 | 12.0 | 0.00 | 0.00 | 0.00 | 73 | 1017.1 |
| 20260506154735 | 56 | 68 | 8.0 | 12.0 | 0.00 | 0.00 | 0.00 | 73 | 1016.7 |
| 20260506154046 | 56 | 68 | 8.0 | 13.0 | 0.00 | 0.00 | 0.00 | 73 | 1016.6 |
| 20260506153522 | 56 | 45 | 9.0 | 13.0 | 0.00 | 0.00 | 0.00 | 74 | 1016.6 |
| 20260506153022 | 56 | 45 | 10.0 | 15.0 | 0.00 | 0.00 | 0.00 | 75 | 1016.5 |
| 20260506152522 | 56 | 45 | 8.0 | 13.0 | 0.00 | 0.00 | 0.00 | 75 | 1016.4 |
| 20260506152042 | 56 | 45 | 6.0 | 11.0 | 0.00 | 0.00 | 0.00 | 76 | 1016.5 |
| 20260506151544 | 55 | 45 | 9.0 | 15.0 | 0.00 | 0.00 | 0.00 | 75 | 1016.3 |
| 20260506151022 | 55 | 68 | 8.0 | 13.0 | 0.00 | 0.00 | 0.00 | 75 | 1016.3 |
| 20260506150543 | 55 | 45 | 9.0 | 13.0 | 0.00 | 0.00 | 0.00 | 75 | 1016.3 |
| 20260506150021 | 55 | 45 | 11.0 | 16.0 | 0.00 | 0.00 | 0.00 | 76 | 1016.2 |
| 20260506145542 | 55 | 68 | 7.0 | 14.0 | 0.00 | 0.00 | 0.00 | 76 | 1016.4 |
| 20260506145208 | 55 | 45 | 7.0 | 12.0 | 0.00 | 0.00 | 0.00 | 77 | 1016.5 |
| 20260506144522 | 55 | 68 | 10.0 | 15.0 | 0.00 | 0.00 | 0.00 | 75 | 1016.5 |
| 20260506144103 | 55 | 45 | 10.0 | 17.0 | 0.00 | 0.00 | 0.00 | 75 | 1016.3 |
| 20260506143523 | 55 | 45 | 9.0 | 13.0 | 0.00 | 0.00 | 0.00 | 75 | 1016.4 |
| 20260506143022 | 55 | 45 | 11.0 | 17.0 | 0.00 | 0.00 | 0.00 | 75 | 1016.5 |
| 20260506142523 | 55 | 45 | 9.0 | 15.0 | 0.00 | 0.00 | 0.00 | 75 | 1016.5 |
| 20260506142040 | 55 | 45 | 9.0 | 14.0 | 0.00 | 0.00 | 0.00 | 77 | 1016.3 |
| 20260506141522 | 55 | 45 | 9.0 | 14.0 | 0.00 | 0.00 | 0.00 | 76 | 1015.9 |
| 20260506141044 | 54 | 45 | 10.0 | 17.0 | 0.00 | 0.00 | 0.00 | 75 | 1015.7 |
| 20260506140520 | 55 | 45 | 8.0 | 15.0 | 0.00 | 0.00 | 0.00 | 76 | 1015.7 |
| 20260506140022 | 54 | 45 | 13.0 | 17.0 | 0.00 | 0.00 | 0.00 | 76 | 1015.4 |
| 20260506135546 | 55 | 45 | 12.0 | 17.0 | 0.00 | 0.00 | 0.00 | 76 | 1015.4 |
| 20260506135022 | 55 | 45 | 9.0 | 15.0 | 0.00 | 0.00 | 0.00 | 77 | 1015.6 |
| 20260506134522 | 55 | 68 | 8.0 | 14.0 | 0.00 | 0.00 | 0.00 | 76 | 1015.4 |
| 20260506134022 | 55 | 45 | 9.0 | 14.0 | 0.00 | 0.00 | 0.00 | 76 | 1015.3 |
| 20260506133522 | 55 | 68 | 7.0 | 11.0 | 0.00 | 0.00 | 0.00 | 77 | 1015.4 |
| 20260506133127 | 54 | 68 | 8.0 | 15.0 | 0.00 | 0.00 | 0.00 | 77 | 1015.5 |
| 20260506132543 | 54 | 45 | 11.0 | 19.0 | 0.00 | 0.00 | 0.00 | 77 | 1015.4 |
| 20260506132023 | 54 | 45 | 7.0 | 16.0 | 0.00 | 0.00 | 0.00 | 78 | 1015.2 |
| 20260506131542 | 54 | 68 | 8.0 | 13.0 | 0.00 | 0.00 | 0.00 | 78 | 1015.1 |
| 20260506131238 | 54 | 45 | 11.0 | 17.0 | 0.00 | 0.00 | 0.00 | 77 | 1015.1 |
| 20260506130523 | 54 | 68 | 6.0 | 11.0 | 0.00 | 0.00 | 0.00 | 79 | 1015.1 |
| 20260506130022 | 54 | 68 | 10.0 | 19.0 | 0.00 | 0.00 | 0.00 | 79 | 1015.1 |
| 20260506125522 | 54 | 45 | 7.0 | 12.0 | 0.00 | 0.00 | 0.00 | 80 | 1015.0 |
| 20260506125022 | 54 | 45 | 7.0 | 11.0 | 0.00 | 0.00 | 0.00 | 79 | 1014.7 |
| 20260506124602 | 54 | 45 | 7.0 | 11.0 | 0.00 | 0.00 | 0.00 | 79 | 1014.7 |
| 20260506124042 | 54 | 45 | 8.0 | 12.0 | 0.00 | 0.00 | 0.00 | 80 | 1014.6 |
| 20260506123522 | 54 | 45 | 9.0 | 13.0 | 0.00 | 0.00 | 0.00 | 80 | 1014.6 |
| 20260506123022 | 54 | 45 | 8.0 | 12.0 | 0.00 | 0.00 | 0.00 | 81 | 1014.7 |
| 20260506122522 | 54 | 45 | 9.0 | 13.0 | 0.00 | 0.00 | 0.00 | 80 | 1014.7 |
| 20260506122022 | 54 | 68 | 7.0 | 14.0 | 0.00 | 0.00 | 0.00 | 81 | 1014.8 |
| 20260506121522 | 54 | 45 | 9.0 | 13.0 | 0.00 | 0.00 | 0.00 | 81 | 1014.6 |
| 20260506121043 | 54 | 45 | 9.0 | 15.0 | 0.00 | 0.00 | 0.00 | 83 | 1014.7 |
| 20260506120543 | 53 | 45 | 10.0 | 15.0 | 0.00 | 0.00 | 0.00 | 82 | 1014.6 |
| 20260506120043 | 53 | 45 | 13.0 | 18.0 | 0.00 | 0.00 | 0.00 | 82 | 1014.5 |
| 20260506115522 | 53 | 45 | 10.0 | 14.0 | 0.00 | 0.00 | 0.00 | 83 | 1014.5 |
| 20260506115022 | 53 | 45 | 10.0 | 13.0 | 0.00 | 0.00 | 0.00 | 82 | 1014.5 |
| 20260506114522 | 53 | 45 | 10.0 | 13.0 | 0.00 | 0.00 | 0.00 | 83 | 1014.3 |
| 20260506114022 | 53 | 45 | 9.0 | 15.0 | 0.00 | 0.00 | 0.00 | 83 | 1014.4 |
| 20260506113522 | 53 | 45 | 10.0 | 19.0 | 0.00 | 0.00 | 0.00 | 83 | 1014.3 |
| 20260506113042 | 53 | 45 | 9.0 | 17.0 | 0.00 | 0.00 | 0.00 | 83 | 1014.2 |
| 20260506112522 | 53 | 45 | 12.0 | 17.0 | 0.00 | 0.00 | 0.00 | 84 | 1013.9 |
| 20260506112043 | 53 | 45 | 13.0 | 17.0 | 0.00 | 0.00 | 0.00 | 84 | 1013.9 |
| 20260506111523 | 53 | 45 | 11.0 | 17.0 | 0.00 | 0.00 | 0.00 | 84 | 1014.0 |
| 20260506111023 | 53 | 45 | 14.0 | 19.0 | 0.00 | 0.00 | 0.00 | 84 | 1014.1 |
| 20260506110522 | 53 | 45 | 13.0 | 20.0 | 0.00 | 0.00 | 0.00 | 83 | 1014.0 |
| 20260506110023 | 53 | 45 | 11.0 | 15.0 | 0.00 | 0.00 | 0.00 | 84 | 1014.0 |
| 20260506105522 | 54 | 45 | 11.0 | 17.0 | 0.00 | 0.00 | 0.00 | 83 | 1014.1 |
| 20260506105022 | 54 | 45 | 10.0 | 17.0 | 0.00 | 0.00 | 0.00 | 81 | 1013.9 |
| 20260506104522 | 54 | 45 | 13.0 | 20.0 | 0.00 | 0.00 | 0.00 | 82 | 1014.0 |
| 20260506104022 | 53 | 23 | 11.0 | 17.0 | 0.00 | 0.00 | 0.00 | 81 | 1013.6 |
| 20260506103522 | 54 | 23 | 9.0 | 16.0 | 0.00 | 0.00 | 0.00 | 80 | 1013.9 |
| 20260506103022 | 54 | 45 | 9.0 | 13.0 | 0.00 | 0.00 | 0.00 | 81 | 1014.1 |
| 20260506102522 | 54 | 45 | 11.0 | 14.0 | 0.00 | 0.00 | 0.00 | 79 | 1013.9 |
| 20260506102022 | 54 | 45 | 12.0 | 18.0 | 0.00 | 0.00 | 0.00 | 82 | 1013.6 |
| 20260506101521 | 54 | 45 | 14.0 | 18.0 | 0.00 | 0.00 | 0.00 | 80 | 1013.3 |
| 20260506101023 | 54 | 45 | 15.0 | 20.0 | 0.00 | 0.00 | 0.00 | 82 | 1013.2 |
| 20260506100542 | 54 | 45 | 12.0 | 17.0 | 0.00 | 0.00 | 0.00 | 80 | 1013.5 |
| 20260506100023 | 54 | 45 | 11.0 | 15.0 | 0.00 | 0.00 | 0.00 | 81 | 1013.4 |
| 20260506095522 | 54 | 45 | 14.0 | 18.0 | 0.00 | 0.00 | 0.00 | 82 | 1013.5 |
| 20260506095022 | 54 | 45 | 13.0 | 18.0 | 0.00 | 0.00 | 0.00 | 81 | 1013.4 |
| 20260506094522 | 54 | 45 | 13.0 | 20.0 | 0.00 | 0.00 | 0.00 | 81 | 1013.1 |
| 20260506094021 | 54 | 45 | 14.0 | 20.0 | 0.00 | 0.00 | 0.00 | 78 | 1013.2 |
| 20260506093522 | 54 | 45 | 12.0 | 20.0 | 0.00 | 0.00 | 0.00 | 79 | 1013.1 |
| 20260506093022 | 55 | 45 | 13.0 | 18.0 | 0.00 | 0.00 | 0.00 | 78 | 1012.8 |
| 20260506092522 | 55 | 45 | 10.0 | 16.0 | 0.00 | 0.00 | 0.00 | 78 | 1012.6 |
| 20260506092021 | 55 | 45 | 11.0 | 16.0 | 0.00 | 0.00 | 0.00 | 77 | 1012.6 |
| 20260506091542 | 55 | 45 | 11.0 | 16.0 | 0.00 | 0.00 | 0.00 | 79 | 1012.6 |
| 20260506091021 | 55 | 45 | 11.0 | 19.0 | 0.00 | 0.00 | 0.00 | 78 | 1012.5 |
| 20260506090544 | 55 | 45 | 13.0 | 17.0 | 0.00 | 0.00 | 0.00 | 78 | 1012.4 |
| 20260506090042 | 55 | 45 | 12.0 | 16.0 | 0.00 | 0.00 | 0.00 | 77 | 1012.6 |
| 20260506085523 | 55 | 45 | 12.0 | 17.0 | 0.00 | 0.00 | 0.00 | 78 | 1012.3 |
| 20260506085022 | 55 | 45 | 12.0 | 17.0 | 0.00 | 0.00 | 0.00 | 78 | 1012.4 |
| 20260506084522 | 55 | 45 | 12.0 | 17.0 | 0.00 | 0.00 | 0.00 | 77 | 1012.3 |
| 20260506084102 | 55 | 45 | 8.0 | 13.0 | 0.00 | 0.00 | 0.00 | 77 | 1012.4 |
| 20260506083522 | 55 | 45 | 10.0 | 14.0 | 0.00 | 0.00 | 0.00 | 77 | 1012.3 |
| 20260506083022 | 55 | 45 | 10.0 | 16.0 | 0.00 | 0.00 | 0.00 | 77 | 1012.3 |
| 20260506082602 | 55 | 45 | 8.0 | 12.0 | 0.00 | 0.00 | 0.00 | 76 | 1012.3 |
| 20260506082021 | 55 | 0 | 8.0 | 13.0 | 0.00 | 0.00 | 0.00 | 75 | 1012.2 |
| 20260506081522 | 55 | 45 | 8.0 | 14.0 | 0.00 | 0.00 | 0.00 | 76 | 1012.2 |
| 20260506081022 | 55 | 45 | 10.0 | 15.0 | 0.00 | 0.00 | 0.00 | 76 | 1012.2 |
| 20260506080522 | 55 | 23 | 9.0 | 13.0 | 0.00 | 0.00 | 0.00 | 74 | 1012.2 |
| 20260506073021 | 56 | 45 | 9.0 | 15.0 | 0.00 | 0.00 | 0.00 | 77 | 1012.2 |
| 20260506072542 | 56 | 45 | 11.0 | 17.0 | 0.00 | 0.00 | 0.00 | 75 | 1012.1 |
| 20260506072023 | 56 | 45 | 9.0 | 15.0 | 0.00 | 0.00 | 0.00 | 76 | 1012.3 |
| 20260506071521 | 56 | 45 | 8.0 | 13.0 | 0.00 | 0.00 | 0.00 | 76 | 1012.1 |
| 20260506071027 | 56 | 45 | 9.0 | 13.0 | 0.00 | 0.00 | 0.00 | 76 | 1011.9 |
| 20260506070529 | 56 | 45 | 8.0 | 13.0 | 0.00 | 0.00 | 0.00 | 75 | 1011.7 |
| 20260506062101 | 57 | 45 | 10.0 | 13.0 | 0.00 | 0.00 | 0.00 | 75 | 1011.8 |
| 20260506061522 | 57 | 45 | 10.0 | 14.0 | 0.00 | 0.00 | 0.00 | 78 | 1011.9 |
| 20260506061021 | 57 | 45 | 10.0 | 15.0 | 0.00 | 0.00 | 0.00 | 77 | 1011.8 |
| 20260506060522 | 57 | 45 | 13.0 | 17.0 | 0.00 | 0.00 | 0.00 | 76 | 1011.6 |
| 20260506051043 | 57 | 45 | 13.0 | 16.0 | 0.00 | 0.00 | 0.00 | 77 | 1011.9 |
| 20260506050525 | 57 | 45 | 10.0 | 15.0 | 0.00 | 0.00 | 0.00 | 77 | 1012.0 |
| 20260506045021 | 58 | 45 | 12.0 | 17.0 | 0.00 | 0.00 | 0.00 | 76 | 1011.8 |
| 20260506044521 | 58 | 45 | 13.0 | 18.0 | 0.00 | 0.00 | 0.00 | 77 | 1011.9 |
| 20260506044041 | 58 | 45 | 12.0 | 19.0 | 0.00 | 0.00 | 0.00 | 77 | 1011.8 |
| 20260506043521 | 58 | 45 | 13.0 | 18.0 | 0.00 | 0.00 | 0.00 | 77 | 1011.9 |
| 20260506043021 | 58 | 45 | 14.0 | 18.0 | 0.00 | 0.00 | 0.00 | 76 | 1011.9 |
| 20260506042541 | 58 | 45 | 12.0 | 16.0 | 0.00 | 0.00 | 0.00 | 77 | 1011.9 |
| 20260506042021 | 58 | 45 | 10.0 | 14.0 | 0.00 | 0.00 | 0.00 | 77 | 1011.8 |
| 20260506041521 | 58 | 45 | 11.0 | 15.0 | 0.00 | 0.00 | 0.00 | 77 | 1011.8 |
| 20260506041021 | 58 | 68 | 10.0 | 18.0 | 0.00 | 0.00 | 0.00 | 77 | 1011.7 |
| 20260506040521 | 58 | 45 | 13.0 | 17.0 | 0.00 | 0.00 | 0.00 | 77 | 1011.6 |
| 20260506040021 | 59 | 68 | 12.0 | 17.0 | 0.00 | 0.00 | 0.00 | 78 | 1011.6 |
| 20260506035521 | 59 | 68 | 13.0 | 18.0 | 0.00 | 0.00 | 0.00 | 80 | 1011.6 |
| 20260506035041 | 59 | 68 | 12.0 | 18.0 | 0.00 | 0.00 | 0.00 | 78 | 1011.6 |
| 20260506034521 | 59 | 68 | 10.0 | 16.0 | 0.00 | 0.00 | 0.00 | 78 | 1011.7 |
| 20260506034021 | 59 | 45 | 11.0 | 19.0 | 0.00 | 0.00 | 0.00 | 78 | 1011.8 |
| 20260506033521 | 59 | 68 | 12.0 | 18.0 | 0.00 | 0.00 | 0.00 | 78 | 1011.6 |
| 20260506033041 | 59 | 68 | 12.0 | 18.0 | 0.00 | 0.00 | 0.00 | 77 | 1011.5 |
| 20260506032521 | 59 | 45 | 9.0 | 16.0 | 0.00 | 0.00 | 0.00 | 77 | 1011.6 |
| 20260506032021 | 59 | 45 | 10.0 | 15.0 | 0.00 | 0.00 | 0.00 | 78 | 1011.4 |
| 20260506031541 | 60 | 68 | 8.0 | 14.0 | 0.00 | 0.00 | 0.00 | 78 | 1011.4 |
| 20260506031021 | 60 | 68 | 6.0 | 14.0 | 0.00 | 0.00 | 0.00 | 79 | 1011.3 |
| 20260506030541 | 60 | 68 | 9.0 | 15.0 | 0.00 | 0.00 | 0.00 | 79 | 1011.1 |
| 20260506030042 | 60 | 68 | 11.0 | 16.0 | 0.00 | 0.00 | 0.00 | 80 | 1011.0 |
| 20260506025521 | 60 | 68 | 13.0 | 17.0 | 0.00 | 0.00 | 0.00 | 79 | 1011.1 |
| 20260506025021 | 60 | 68 | 12.0 | 17.0 | 0.00 | 0.00 | 0.00 | 79 | 1010.9 |
| 20260506024521 | 60 | 68 | 10.0 | 16.0 | 0.00 | 0.00 | 0.00 | 80 | 1010.8 |
| 20260506024021 | 60 | 68 | 9.0 | 16.0 | 0.00 | 0.00 | 0.00 | 79 | 1010.6 |
| 20260506023521 | 60 | 68 | 11.0 | 16.0 | 0.00 | 0.00 | 0.00 | 80 | 1010.5 |
| 20260506023020 | 60 | 68 | 14.0 | 19.0 | 0.00 | 0.00 | 0.00 | 79 | 1010.5 |
| 20260506022601 | 60 | 68 | 10.0 | 14.0 | 0.00 | 0.00 | 0.00 | 81 | 1010.1 |
| 20260506022021 | 60 | 68 | 13.0 | 17.0 | 0.00 | 0.00 | 0.00 | 80 | 1009.6 |
| 20260506021755 | 61 | 68 | 14.0 | 19.0 | 0.00 | 0.00 | 0.00 | 81 | 1009.1 |
| 20260506021021 | 61 | 68 | 14.0 | 19.0 | 0.00 | 0.00 | 0.00 | 82 | 1008.9 |
| 20260506020521 | 61 | 68 | 13.0 | 18.0 | 0.00 | 0.00 | 0.00 | 81 | 1009.0 |
| 20260506020021 | 61 | 68 | 14.0 | 20.0 | 0.00 | 0.00 | 0.00 | 81 | 1008.9 |
| 20260506015521 | 61 | 68 | 13.0 | 18.0 | 0.00 | 0.00 | 0.00 | 80 | 1008.6 |
| 20260506015021 | 61 | 68 | 16.0 | 21.0 | 0.00 | 0.00 | 0.00 | 80 | 1008.7 |
| 20260506014601 | 61 | 68 | 12.0 | 21.0 | 0.00 | 0.00 | 0.00 | 81 | 1008.7 |
| 20260506014021 | 61 | 68 | 12.0 | 18.0 | 0.00 | 0.00 | 0.00 | 79 | 1008.7 |
| 20260506013521 | 62 | 68 | 13.0 | 18.0 | 0.00 | 0.00 | 0.00 | 79 | 1008.5 |
| 20260506013020 | 62 | 45 | 10.0 | 19.0 | 0.00 | 0.00 | 0.00 | 79 | 1008.2 |
| 20260506012601 | 62 | 68 | 12.0 | 20.0 | 0.00 | 0.00 | 0.00 | 79 | 1008.3 |
| 20260506012021 | 63 | 68 | 14.0 | 20.0 | 0.00 | 0.00 | 0.00 | 79 | 1008.1 |
| 20260506011521 | 63 | 68 | 15.0 | 21.0 | 0.00 | 0.00 | 0.00 | 79 | 1008.1 |
| 20260506011041 | 63 | 68 | 14.0 | 22.0 | 0.00 | 0.00 | 0.00 | 79 | 1008.0 |
| 20260506010521 | 63 | 68 | 12.0 | 19.0 | 0.00 | 0.00 | 0.00 | 79 | 1007.8 |
| 20260506010021 | 63 | 45 | 10.0 | 19.0 | 0.00 | 0.00 | 0.00 | 78 | 1007.7 |
| 20260506005521 | 64 | 68 | 12.0 | 20.0 | 0.00 | 0.00 | 0.00 | 77 | 1007.9 |
| 20260506005021 | 64 | 45 | 11.0 | 18.0 | 0.00 | 0.00 | 0.00 | 76 | 1008.1 |
| 20260506004521 | 64 | 45 | 13.0 | 19.0 | 0.00 | 0.00 | 0.00 | 76 | 1007.9 |
| 20260506004021 | 65 | 45 | 10.0 | 17.0 | 0.00 | 0.00 | 0.00 | 77 | 1008.0 |
| 20260506003521 | 65 | 45 | 11.0 | 16.0 | 0.00 | 0.00 | 0.00 | 75 | 1007.7 |
| 20260506003041 | 66 | 68 | 14.0 | 19.0 | 0.00 | 0.00 | 0.00 | 75 | 1007.6 |
| 20260506002521 | 66 | 68 | 16.0 | 21.0 | 0.00 | 0.00 | 0.00 | 75 | 1007.6 |
| 20260506002021 | 67 | 68 | 15.0 | 21.0 | 0.00 | 0.00 | 0.00 | 75 | 1007.6 |
| 20260506001520 | 67 | 45 | 15.0 | 20.0 | 0.00 | 0.00 | 0.00 | 75 | 1007.6 |
| 20260506001021 | 68 | 23 | 9.0 | 19.0 | 0.00 | 0.00 | 0.00 | 73 | 1007.5 |
| 20260506000521 | 68 | 45 | 11.0 | 20.0 | 0.00 | 0.00 | 0.00 | 74 | 1007.5 |
| 20260506000020 | 68 | 45 | 14.0 | 18.0 | 0.00 | 0.00 | 0.00 | 74 | 1007.3 |
| 20260505235521 | 69 | 45 | 11.0 | 18.0 | 0.00 | 0.00 | 0.00 | 74 | 1007.0 |
| 20260505235022 | 69 | 23 | 8.0 | 14.0 | 0.00 | 0.00 | 0.00 | 73 | 1007.4 |
| 20260505234541 | 69 | 338 | 7.0 | 12.0 | 0.00 | 0.00 | 0.00 | 74 | 1007.6 |
| 20260505234022 | 69 | 338 | 8.0 | 14.0 | 0.00 | 0.00 | 0.00 | 73 | 1007.4 |
| 20260505233521 | 69 | 338 | 7.0 | 13.0 | 0.00 | 0.00 | 0.00 | 73 | 1007.3 |
| 20260505233041 | 69 | 0 | 8.0 | 14.0 | 0.00 | 0.00 | 0.00 | 73 | 1007.3 |
| 20260505232520 | 69 | 0 | 8.0 | 15.0 | 0.00 | 0.00 | 0.00 | 73 | 1007.1 |
| 20260505232021 | 69 | 338 | 9.0 | 17.0 | 0.00 | 0.00 | 0.00 | 73 | 1007.0 |
| 20260505231521 | 69 | 338 | 8.0 | 16.0 | 0.00 | 0.00 | 0.00 | 73 | 1007.1 |
| 20260505231020 | 70 | 0 | 12.0 | 19.0 | 0.00 | 0.00 | 0.00 | 72 | 1007.4 |
| 20260505230520 | 70 | 338 | 10.0 | 19.0 | 0.00 | 0.00 | 0.00 | 71 | 1007.1 |
| 20260505230021 | 71 | 0 | 9.0 | 14.0 | 0.00 | 0.00 | 0.00 | 71 | 1007.1 |
| 20260505225520 | 71 | 338 | 8.0 | 14.0 | 0.00 | 0.00 | 0.00 | 71 | 1007.2 |
| 20260505225020 | 71 | 338 | 7.0 | 15.0 | 0.00 | 0.00 | 0.00 | 71 | 1007.2 |
| 20260505224520 | 71 | 338 | 9.0 | 15.0 | 0.00 | 0.00 | 0.00 | 69 | 1007.2 |
| 20260505224020 | 72 | 315 | 6.0 | 12.0 | 0.00 | 0.00 | 0.00 | 70 | 1006.9 |
| 20260505223521 | 72 | 315 | 9.0 | 14.0 | 0.00 | 0.00 | 0.00 | 70 | 1007.0 |
| 20260505223021 | 72 | 315 | 9.0 | 18.0 | 0.00 | 0.00 | 0.00 | 70 | 1006.9 |
| 20260505222520 | 72 | 315 | 9.0 | 18.0 | 0.00 | 0.00 | 0.00 | 70 | 1006.6 |
| 20260505222040 | 73 | 338 | 10.0 | 18.0 | 0.00 | 0.00 | 0.00 | 68 | 1006.7 |
| 20260505221541 | 73 | 338 | 6.0 | 12.0 | 0.00 | 0.00 | 0.00 | 70 | 1006.5 |
| 20260505221041 | 73 | 315 | 8.0 | 15.0 | 0.00 | 0.00 | 0.00 | 69 | 1006.5 |
| 20260505220521 | 73 | 315 | 5.0 | 11.0 | 0.00 | 0.00 | 0.00 | 69 | 1006.4 |
| 20260505220041 | 74 | 315 | 7.0 | 13.0 | 0.00 | 0.00 | 0.00 | 69 | 1006.4 |
| 20260505215520 | 74 | 338 | 7.0 | 14.0 | 0.00 | 0.00 | 0.00 | 69 | 1006.3 |
| 20260505215020 | 74 | 338 | 7.0 | 16.0 | 0.00 | 0.00 | 0.00 | 69 | 1006.2 |
| 20260505214520 | 74 | 338 | 8.0 | 16.0 | 0.00 | 0.00 | 0.00 | 68 | 1006.1 |
| 20260505214020 | 74 | 338 | 9.0 | 16.0 | 0.00 | 0.00 | 0.00 | 68 | 1006.2 |
| 20260505213540 | 75 | 315 | 7.0 | 14.0 | 0.00 | 0.00 | 0.00 | 68 | 1006.2 |
| 20260505213021 | 75 | 315 | 9.0 | 16.0 | 0.00 | 0.00 | 0.00 | 67 | 1006.1 |
| 20260505212521 | 76 | 338 | 8.0 | 15.0 | 0.00 | 0.00 | 0.00 | 67 | 1006.0 |
| 20260505212021 | 76 | 315 | 7.0 | 16.0 | 0.00 | 0.00 | 0.00 | 67 | 1006.1 |
| 20260505211521 | 77 | 338 | 5.0 | 12.0 | 0.00 | 0.00 | 0.00 | 67 | 1006.1 |